CPA260 LFPG-VHHH

Flight info

Callsign CPA260
Flight time N/A
Altitude 33000
Route LANVI DCT LUPEN UM164 UTABA DCT INPUL DCT VATET DCT MOPUG DCT ASNEL/N0488F350 DCT UDROS UM859 KARDE UL851 TBN UR317 REBLO DCT TABAS DCT MATAL M11 LUSAL N199 RASAM L88 METKA B476 NEBIT/N0487F370 B476 DARVA/K0900F370 T898 OGOLI N193 SR L163 TISIB L141 KAMUD/K0896S1130 W186 SADAN Y1 LUSMA/K0896S1190 Y1 OMBON W245 OVRAL B330 KWE W181 DUDIT A599 POU R473 SIERA
Aircraft A35K/H-SDE2E3GHIJ3J4J5LM1ORWXY/LB1D1

Departure

Time 2026-05-05 13:13
Airport Charles de Gaulle International Airport (LFPG)

Arrival

Time N/A
Airport Hong Kong International Airport (VHHH)
Time Latitude Longitude Altitude Speed Heading
2026-05-05 12:47 49.00161 2.56132 367 ft 0 kts
2026-05-05 13:01 49.00154 2.56132 360 ft 4 kts
2026-05-05 13:01 49.00127 2.56130 360 ft 4 kts
2026-05-05 13:02 49.00101 2.56128 362 ft 4 kts
2026-05-05 13:02 49.00086 2.56135 362 ft 4 kts 274°
2026-05-05 13:02 49.00088 2.56175 364 ft 4 kts 262°
2026-05-05 13:02 49.00090 2.56200 367 ft 1 kts 266°
2026-05-05 13:03 49.00090 2.56204 367 ft 0 kts 266°
2026-05-05 13:07 49.00090 2.56194 368 ft 3 kts 267°
2026-05-05 13:07 49.00087 2.56127 361 ft 10 kts 266°
2026-05-05 13:07 49.00080 2.55995 362 ft 15 kts 265°
2026-05-05 13:08 49.00074 2.55815 360 ft 19 kts 271°
2026-05-05 13:08 49.00052 2.55614 369 ft 19 kts 246°
2026-05-05 13:08 48.99980 2.55526 366 ft 14 kts 184°
2026-05-05 13:08 48.99891 2.55595 367 ft 16 kts 141°
2026-05-05 13:09 48.99832 2.55748 363 ft 18 kts 105°
2026-05-05 13:09 48.99791 2.55801 364 ft 8 kts 161°
2026-05-05 13:09 48.99726 2.55810 362 ft 11 kts 176°
2026-05-05 13:09 48.99638 2.55820 364 ft 14 kts 176°
2026-05-05 13:10 48.99601 2.55866 367 ft 5 kts 95°
2026-05-05 13:10 48.99603 2.55891 365 ft 0 kts 85°
2026-05-05 13:11 48.99603 2.55894 365 ft 1 kts 85°
2026-05-05 13:12 48.99610 2.56028 360 ft 37 kts 85°
2026-05-05 13:12 48.99650 2.56778 361 ft 104 kts 85°
2026-05-05 13:12 48.99725 2.58179 368 ft 160 kts 85°
2026-05-05 13:12 48.99822 2.60032 749 ft 177 kts 82°
2026-05-05 13:13 48.99918 2.61868 1639 ft 171 kts 81°
2026-05-05 13:13 49.00020 2.63710 2200 ft 178 kts 81°
2026-05-05 13:13 49.00144 2.65634 2609 ft 187 kts 83°
2026-05-05 13:13 49.00260 2.67673 2970 ft 206 kts 84°
2026-05-05 13:14 49.00366 2.69947 3516 ft 222 kts 84°
2026-05-05 13:14 49.00506 2.72419 3987 ft 246 kts 87°
2026-05-05 13:14 49.00613 2.75070 4790 ft 253 kts 85°
2026-05-05 13:14 49.00618 2.77772 5558 ft 256 kts 94°
2026-05-05 13:15 49.00395 2.80442 6373 ft 260 kts 97°
2026-05-05 13:15 49.00115 2.83195 7151 ft 264 kts 97°
2026-05-05 13:15 48.99832 2.85992 7970 ft 269 kts 97°
2026-05-05 13:15 48.99549 2.88819 8736 ft 271 kts 97°
2026-05-05 13:16 48.99264 2.91674 9502 ft 274 kts 97°
2026-05-05 13:16 48.98977 2.94562 10166 ft 281 kts 97°
2026-05-05 13:16 48.98688 2.97553 10494 ft 299 kts 96°
2026-05-05 13:16 48.98419 3.00803 10798 ft 317 kts 96°
2026-05-05 13:17 48.98143 3.04232 11120 ft 335 kts 96°
2026-05-05 13:17 48.97847 3.07841 11440 ft 352 kts 97°
2026-05-05 13:17 48.97533 3.11614 11731 ft 368 kts 98°
2026-05-05 13:17 48.97206 3.15502 12349 ft 378 kts 98°
2026-05-05 13:18 48.96865 3.19554 13025 ft 383 kts 98°
2026-05-05 13:18 48.96527 3.23535 13697 ft 387 kts 98°
2026-05-05 13:18 48.96177 3.27624 14249 ft 391 kts 98°
2026-05-05 13:18 48.95823 3.31753 14876 ft 395 kts 98°
2026-05-05 13:19 48.95465 3.35915 15528 ft 398 kts 98°
2026-05-05 13:19 48.95102 3.40115 16130 ft 402 kts 98°
2026-05-05 13:19 48.94734 3.44355 16748 ft 405 kts 98°
2026-05-05 13:19 48.94360 3.48630 17381 ft 409 kts 98°
2026-05-05 13:20 48.93983 3.52934 17965 ft 413 kts 99°
2026-05-05 13:20 48.93615 3.57293 18461 ft 418 kts 97°
2026-05-05 13:20 48.93377 3.61671 18994 ft 421 kts 96°
2026-05-05 13:20 48.93171 3.66149 19560 ft 424 kts 96°
2026-05-05 13:21 48.92956 3.70600 20133 ft 428 kts 96°
2026-05-05 13:21 48.92726 3.75156 20715 ft 431 kts 96°
2026-05-05 13:21 48.92487 3.79713 21301 ft 434 kts 96°
2026-05-05 13:21 48.92242 3.84308 21877 ft 438 kts 96°
2026-05-05 13:22 48.91994 3.88890 22437 ft 441 kts 96°
2026-05-05 13:22 48.91738 3.93550 23068 ft 444 kts 96°
2026-05-05 13:22 48.91477 3.98262 23620 ft 448 kts 96°
2026-05-05 13:22 48.91213 4.03008 24102 ft 452 kts 97°
2026-05-05 13:23 48.90944 4.07781 24586 ft 455 kts 97°
2026-05-05 13:23 48.90672 4.12588 25066 ft 458 kts 97°
2026-05-05 13:23 48.90371 4.17369 25538 ft 460 kts 99°
2026-05-05 13:23 48.89741 4.22140 26016 ft 461 kts 108°
2026-05-05 13:24 48.88594 4.26717 26511 ft 462 kts 117°
2026-05-05 13:24 48.87089 4.31044 27041 ft 464 kts 120°
2026-05-05 13:24 48.85505 4.35342 27535 ft 468 kts 121°
2026-05-05 13:24 48.83908 4.39664 28073 ft 470 kts 121°
2026-05-05 13:25 48.82324 4.43957 28649 ft 472 kts 121°
2026-05-05 13:25 48.80714 4.48321 29110 ft 475 kts 121°
2026-05-05 13:25 48.79098 4.52706 29648 ft 474 kts 121°
2026-05-05 13:25 48.77494 4.57057 30261 ft 471 kts 121°
2026-05-05 13:26 48.75898 4.61377 30768 ft 469 kts 121°
2026-05-05 13:26 48.74302 4.65692 31253 ft 467 kts 121°
2026-05-05 13:26 48.72724 4.69952 31704 ft 466 kts 121°
2026-05-05 13:26 48.71137 4.74228 32152 ft 464 kts 121°
2026-05-05 13:27 48.69549 4.78501 32600 ft 463 kts 121°
2026-05-05 13:27 48.67966 4.82751 32803 ft 464 kts 121°
2026-05-05 13:27 48.64807 4.91214 32829 ft 466 kts 121°
2026-05-05 13:28 48.61598 4.99787 32829 ft 467 kts 121°
2026-05-05 13:28 48.58411 5.08271 32830 ft 467 kts 121°
2026-05-05 13:29 48.55192 5.16813 32829 ft 467 kts 121°
2026-05-05 13:29 48.51969 5.25339 32831 ft 468 kts 121°
2026-05-05 13:30 48.48726 5.33890 32832 ft 468 kts 121°
2026-05-05 13:30 48.45503 5.42361 32835 ft 468 kts 121°
2026-05-05 13:31 48.43881 5.46613 32835 ft 468 kts 121°